Location: Peterborough
(44.3091°N, 78.3197°W)
Time: 01:10:38
(UTC-04:00)

Vanguard 2 Rocket - Pass Details

Date: 27 March 2023
Orbit: 554 x 3314 km, 32.9° (Epoch: 02 June)

Event Time Altitude Azimuth Distance (km) Brightness Sun altitude
Rises 02:02:36 0° 270° (W) 5,250 - -42.2°
Reaches altitude 10° 02:06:23 10° 258° (WSW) 4,641 - -42.0°
Maximum altitude 02:17:01 27° 208° (SSW) 4,275 - -41.4°
Drops below altitude 10° 02:31:07 10° 161° (SSE) 6,181 - -40.5°
Exits shadow 02:37:19 - 151° (SSE) 7,273 11.2 -40.0°
Sets 02:37:24 0° 151° (SSE) 7,289 11.2 -40.0°
